User: anonymous   Login
Location: Pilipovskiye Korichintsy
(49.1833°N, 27.4667°E)
Time: 08:56:05
(UTC+00:00)
Language:

Cosmos 2360 - Orbit

View from above orbital plane
View from above orbital plane
View from above satellite
View from above satellite

Ground track
Ground track

The orbit data is extracted from the following two-line orbital elements,

1 25406U 98045A   20272.43628864  .00000039  00000-0  47670-4 0  9997
2 25406  70.8139   8.4315 0009144 217.3487 142.6998 14.12348084143459
Epoch (UTC): 28 September 2020 10:28:15
Eccentricity: 0.0009144
inclination: 70.8139°
perigee height: 845 km
apogee height: 858 km
right ascension of ascending node: 8.4315°
argument of perigee: 217.3487°
revolutions per day: 14.12348084
mean anomaly at epoch: 142.6998°
orbit number at epoch: 14345

The dashed part of the orbit path shows where the satellite is in the earth's shadow,  

DLR